Location: Newark
(35.6799°N, 139.7636°E)
Time: 12:17:12
(UTC+00:00)

Explorer 7 - Pass Details

Date: 12 December 2019
Orbit: 485 x 679 km, 50.3° (Epoch: 22 January)

Event Time Altitude Azimuth Distance (km) Brightness Sun altitude
Rises 13:44:17 0° 294° (WNW) 2,980 - -73.3°
Reaches altitude 10° 13:47:17 10° 276° (W) 2,035 - -73.8°
Maximum altitude 13:50:27 18° 233° (SW) 1,529 - -74.2°
Drops below altitude 10° 13:53:31 10° 190° (S) 1,950 - -74.6°
Sets 13:56:19 0° 171° (S) 2,806 - -74.9°
